Wind_Speed
12 13 13 13 13 14 13 12 12 11 10 10 9 10 11 11 11 11 11 12 12 12 13 14 15 15 16 16 16 16 17 17 17 17 18 19 19 19 19 19 20 21 22
12 13 13 13 14 15 14 14 13 12 12 12 11 11 11 11 11 12 12 12 12 13 14 14 14 15 15 15 16 16 17 17 18 18 19 19 19 19 20 20 21 22 22
13 14 14 14 14 15 15 13 13 13 13 13 12 12 11 11 11 11 11 12 12 13 13 14 15 16 15 16 16 17 17 17 18 18 19 19 20 20 20 21 22 22 23
14 15 15 15 15 16 15 14 14 13 14 13 13 13 12 11 12 12 13 13 13 13 14 15 15 16 16 17 17 17 17 17 18 18 18 19 19 20 21 21 22 23 24
15 15 15 16 16 16 15 15 15 15 15 14 14 12 12 12 13 13 14 14 14 15 15 16 16 16 16 17 16 17 17 17 18 18 19 19 20 20 21 21 22 23 23
15 16 16 16 17 16 16 17 16 16 16 14 13 13 13 13 13 14 14 15 15 15 16 16 16 16 17 17 17 17 17 18 18 18 19 20 20 20 21 22 23 24 25
17 17 17 17 17 17 16 16 16 17 15 14 14 13 13 14 14 15 15 15 16 16 17 16 16 17 18 17 17 18 18 18 18 19 19 20 20 21 22 23 24 25 26
18 19 19 18 18 18 17 17 16 16 15 14 14 14 14 15 15 15 16 16 16 16 17 17 17 18 18 18 18 18 18 18 19 20 20 21 21 22 23 24 25 26 27
19 21 20 19 19 19 17 16 16 16 16 15 14 14 15 16 16 16 16 17 16 17 17 18 18 19 19 18 19 19 19 19 20 21 21 22 22 23 24 25 26 27 27
21 21 21 21 20 19 17 17 17 16 16 16 15 16 16 16 16 16 16 17 17 18 18 18 18 19 19 19 19 19 20 20 21 22 22 23 24 24 24 25 26 26 27
24 23 22 22 22 20 18 17 17 17 17 17 17 17 17 17 17 17 17 18 18 18 18 19 19 19 19 20 20 20 21 21 22 22 23 23 24 24 24 25 25 26 27
24 24 24 24 24 21 19 18 18 18 18 18 18 18 18 18 18 18 19 19 19 20 20 20 20 20 20 21 21 21 22 22 23 23 23 24 24 25 25 26 26 27 28
26 25 26 26 25 23 21 20 20 20 20 19 19 19 20 20 20 20 20 21 21 21 21 21 22 22 22 22 22 23 23 24 24 24 24 25 25 26 27 27 28 29 29
28 28 26 24 23 23 22 21 21 21 21 20 20 20 21 21 21 21 21 22 22 22 22 23 23 22 23 23 23 24 24 25 25 25 25 26 27 27 28 28 29 30 30
28 27 25 24 23 22 22 21 22 22 22 22 22 21 22 22 23 23 23 24 23 23 23 23 23 23 24 24 25 25 25 26 26 26 27 28 28 29 29 29 30 31 30
28 26 24 23 22 22 21 21 22 23 23 23 23 23 23 24 24 24 25 24 24 24 24 24 24 24 25 25 25 26 26 26 26 27 28 29 29 29 29 29 30 30 31
27 25 23 23 23 24 23 23 24 23 23 24 24 24 24 25 25 25 25 25 25 25 26 26 26 26 26 26 26 27 27 27 28 29 29 30 30 30 30 30 31 31 31
26 26 26 26 25 25 25 25 25 25 24 25 25 25 25 26 26 26 26 26 27 27 27 27 27 27 28 27 27 27 28 28 29 29 30 30 30 31 31 31 31 32 32
28 28 29 28 27 28 28 27 26 26 26 26 26 26 27 27 28 28 28 28 28 28 28 28 28 28 28 28 29 29 29 30 30 31 31 31 31 31 31 31 31 31 31
29 29 29 29 29 29 28 28 28 28 28 28 28 28 28 29 30 30 29 29 29 29 29 29 29 28 28 29 29 30 30 31 31 31 31 31 31 31 31 31 31 31 31
30 31 31 31 31 31 30 30 30 30 30 30 30 30 31 31 31 31 30 31 31 30 30 30 30 30 30 30 31 31 31 32 32 31 31 31 31 31 31 31 31 31 31
32 32 33 33 33 32 32 32 31 31 32 33 33 33 32 32 32 32 32 32 32 32 31 31 31 31 32 32 32 32 32 32 32 32 32 31 31 32 32 32 32 32 32
33 33 34 35 35 34 33 33 33 33 34 35 35 34 33 33 32 32 32 32 33 33 32 32 32 32 32 32 33 33 33 33 33 33 33 32 32 32 33 33 33 32 32
35 35 35 36 36 36 34 34 34 34 35 35 34 34 34 33 33 32 32 32 33 33 33 33 32 33 33 33 34 33 34 34 34 33 33 33 33 33 33 33 33 33 33
36 36 37 37 37 37 36 36 36 36 35 35 34 34 34 34 33 32 32 32 33 34 34 34 33 33 34 34 34 34 34 35 35 34 34 33 33 33 33 33 33 34 33
37 37 37 38 37 37 36 36 36 35 35 34 34 34 34 34 33 33 33 33 33 33 34 34 34 34 34 34 34 34 35 34 34 34 34 33 33 33 33 33 33 33 33
Wind_Direction
349 348 349 350 350 346 343 341 336 328 319 311 307 305 302 300 298 297 295 296 297 297 298 299 297 296 296 296 295 293 292 291 289 288 289 290 291 291 292 293 295 295 295
339 338 340 342 342 342 338 336 334 330 326 320 313 307 304 303 304 302 298 298 298 300 301 302 301 300 300 300 298 295 294 294 292 290 291 292 292 293 293 294 294 296 296
332 332 332 333 335 337 335 330 329 327 323 321 319 316 312 310 310 308 306 304 304 303 305 305 304 301 302 303 302 299 297 298 296 294 293 293 293 293 293 295 295 296 296
326 326 328 327 328 329 329 328 328 324 324 320 319 313 310 309 309 308 306 304 304 304 306 308 308 306 304 305 304 303 301 300 299 296 296 296 295 295 295 296 297 297 298
320 320 321 324 324 325 325 326 324 321 320 317 317 313 308 308 308 308 309 307 306 305 306 305 304 305 305 305 305 305 303 302 301 299 298 297 298 298 298 298 299 299 301
314 314 314 316 318 319 320 321 321 321 317 314 313 310 307 307 308 307 308 308 308 308 309 309 308 308 307 308 308 306 303 303 303 302 301 298 298 299 300 300 301 302 302
307 308 308 309 312 314 315 316 318 320 315 310 313 310 307 306 309 309 307 307 308 308 309 309 308 308 308 308 308 306 303 303 304 304 303 302 301 302 302 301 301 302 303
300 302 303 303 305 307 309 310 314 317 313 311 312 312 311 313 311 311 307 307 308 309 308 308 307 307 307 307 308 308 306 305 304 303 303 304 303 303 302 301 302 302 303
297 301 299 299 302 303 303 308 312 313 312 310 309 310 311 312 313 310 307 306 309 310 309 308 306 306 305 305 306 306 305 305 305 305 304 304 304 303 302 302 302 304 305
294 297 299 299 298 300 301 302 306 307 306 307 307 308 310 310 311 310 310 310 310 309 309 309 307 306 306 306 306 306 305 305 306 306 306 305 305 305 305 305 305 306 307
291 290 293 295 296 295 298 298 299 300 301 303 305 306 307 307 308 309 309 308 308 307 307 308 307 306 306 305 305 305 305 305 306 306 306 306 307 307 308 308 308 308 308
289 289 289 292 296 295 294 296 296 296 298 300 302 303 304 305 305 306 308 307 306 306 306 306 306 305 304 303 303 304 303 304 305 306 307 307 307 307 307 307 307 307 307
288 290 289 288 292 291 290 291 294 294 295 296 299 300 301 303 304 305 306 307 306 304 305 305 303 302 302 302 303 303 303 303 304 305 306 306 307 307 307 306 306 307 307
287 287 287 288 289 290 287 289 291 291 293 296 298 298 300 302 304 304 304 308 306 303 303 303 302 302 302 303 303 303 303 303 303 304 305 306 306 307 307 307 307 307 307
286 284 284 284 287 287 285 286 290 290 292 294 297 298 301 302 303 304 304 305 306 305 305 304 302 301 302 302 302 302 302 302 303 303 304 305 305 306 307 307 306 307 307
283 281 279 280 285 285 285 288 290 288 290 295 296 297 299 301 302 302 302 303 303 304 305 305 304 303 303 303 302 303 303 303 303 304 304 304 305 305 306 307 306 307 306
277 277 279 280 281 281 284 287 290 291 291 293 293 295 296 298 299 300 300 300 301 302 303 304 303 302 303 303 303 303 303 303 303 304 305 304 305 304 306 307 307 308 308
272 274 275 277 277 279 281 284 285 286 288 289 290 292 294 295 297 298 298 299 300 301 301 301 301 301 301 302 303 303 303 303 303 304 305 305 305 305 306 307 308 308 308
272 274 274 276 278 279 280 282 283 284 285 288 289 290 292 293 295 295 296 297 298 299 300 300 300 301 301 301 301 302 302 303 303 304 304 305 305 306 306 307 307 308 308
271 274 274 275 277 281 282 283 283 284 285 286 289 289 290 292 293 294 295 295 296 298 298 299 299 300 300 300 301 302 303 303 303 303 303 303 304 306 306 307 307 308 309
269 271 273 273 275 277 279 281 284 285 284 285 286 287 289 290 291 292 292 293 294 296 296 297 297 297 298 299 300 301 302 303 303 302 302 303 306 306 306 306 307 308 309
269 271 273 274 275 276 279 281 283 284 284 286 288 287 287 288 289 290 291 292 292 293 293 294 295 296 297 298 299 300 301 302 301 301 302 303 304 305 305 306 306 307 307
271 272 272 274 275 276 277 278 280 282 283 285 286 287 287 287 287 289 291 291 291 291 291 291 294 296 297 298 299 299 300 301 300 301 301 302 303 304 305 305 305 306 306
272 272 273 274 275 276 277 278 280 282 283 284 284 286 286 285 286 288 291 291 291 291 290 290 292 294 297 298 299 300 300 300 300 301 302 302 302 302 304 305 305 305 305
272 273 273 273 277 278 277 278 279 280 281 281 282 283 284 285 286 286 288 289 290 290 290 290 291 293 295 297 298 299 299 299 300 300 301 301 300 301 302 303 303 303 303
272 273 274 277 277 277 278 279 280 280 279 279 280 282 283 283 284 285 286 287 288 288 289 290 291 293 295 296 297 298 298 299 299 300 300 300 300 301 302 303 303 302 302
Height
5904 5902 5900 5898 5896 5893 5891 5889 5887 5886 5884 5882 5881 5880 5879 5878 5877 5875 5874 5873 5872 5871 5870 5868 5866 5865 5863 5862 5860 5858 5857 5856 5855 5853 5852 5850 5849 5848 5847 5845 5844 5842 5840
5903 5901 5899 5897 5895 5892 5890 5888 5886 5884 5882 5881 5879 5878 5876 5875 5874 5873 5871 5870 5869 5868 5866 5865 5863 5862 5860 5858 5857 5855 5853 5852 5851 5849 5847 5846 5844 5843 5842 5840 5839 5837 5835
5901 5899 5898 5895 5893 5891 5889 5887 5885 5883 5881 5879 5877 5876 5874 5873 5871 5870 5869 5868 5866 5865 5863 5862 5860 5858 5856 5855 5853 5851 5850 5848 5846 5845 5843 5841 5840 5839 5837 5836 5834 5832 5830
5899 5898 5896 5894 5892 5889 5887 5885 5883 5881 5879 5877 5875 5874 5872 5871 5869 5868 5866 5865 5863 5862 5860 5858 5856 5855 5853 5851 5849 5848 5846 5844 5842 5841 5839 5837 5835 5834 5832 5831 5828 5826 5824
5897 5895 5894 5892 5890 5887 5885 5883 5881 5879 5876 5875 5873 5871 5870 5868 5867 5865 5864 5862 5860 5859 5857 5855 5853 5851 5849 5847 5846 5844 5842 5840 5838 5836 5835 5833 5831 5829 5827 5825 5823 5821 5818
5895 5893 5891 5890 5887 5885 5883 5881 5878 5876 5873 5872 5871 5869 5867 5866 5864 5862 5861 5859 5857 5855 5854 5852 5850 5848 5846 5844 5842 5840 5838 5836 5834 5832 5830 5828 5826 5824 5823 5820 5818 5816 5813
5892 5890 5888 5886 5884 5882 5880 5878 5875 5873 5870 5869 5868 5866 5864 5862 5861 5859 5857 5856 5854 5852 5850 5848 5846 5844 5842 5840 5838 5836 5834 5832 5830 5828 5826 5824 5822 5820 5817 5815 5812 5810 5807
5887 5886 5884 5882 5881 5879 5877 5874 5872 5870 5868 5866 5865 5863 5861 5859 5857 5855 5854 5852 5850 5848 5846 5844 5842 5840 5838 5836 5834 5832 5830 5827 5825 5823 5821 5819 5817 5814 5812 5809 5807 5804 5801
5883 5881 5879 5877 5876 5874 5873 5871 5868 5866 5865 5863 5861 5860 5858 5856 5854 5852 5850 5848 5846 5844 5842 5840 5838 5836 5834 5832 5830 5828 5825 5823 5821 5818 5816 5814 5811 5809 5806 5803 5800 5797 5794
5878 5876 5875 5873 5871 5870 5868 5866 5865 5863 5861 5860 5858 5856 5854 5852 5850 5848 5846 5844 5842 5840 5838 5836 5834 5832 5830 5827 5825 5823 5821 5818 5816 5813 5811 5808 5805 5803 5800 5797 5794 5791 5788
5872 5871 5869 5868 5866 5865 5863 5862 5861 5859 5858 5856 5854 5852 5850 5848 5846 5844 5842 5840 5838 5836 5834 5832 5830 5827 5825 5823 5821 5818 5816 5813 5811 5808 5805 5802 5800 5797 5794 5791 5787 5785 5781
5865 5864 5863 5862 5860 5858 5858 5857 5856 5855 5853 5851 5850 5848 5846 5844 5842 5840 5837 5835 5833 5831 5829 5827 5824 5822 5820 5818 5815 5813 5810 5808 5805 5802 5800 5797 5794 5791 5788 5784 5781 5778 5774
5860 5858 5857 5856 5855 5853 5853 5852 5851 5850 5848 5846 5845 5843 5841 5839 5837 5835 5833 5830 5828 5826 5823 5821 5819 5817 5814 5812 5810 5807 5804 5802 5799 5796 5794 5791 5788 5784 5781 5778 5774 5771 5767
5853 5852 5850 5848 5848 5847 5846 5846 5845 5844 5843 5841 5840 5838 5836 5834 5832 5830 5827 5825 5822 5820 5818 5815 5813 5811 5808 5806 5803 5801 5798 5795 5793 5790 5787 5784 5781 5778 5774 5771 5767 5763 5760
5846 5845 5843 5842 5842 5840 5840 5840 5839 5838 5837 5836 5834 5832 5830 5828 5826 5824 5822 5819 5817 5814 5812 5809 5807 5805 5802 5800 5797 5794 5792 5789 5786 5783 5780 5777 5774 5770 5767 5763 5759 5755 5752
5839 5838 5836 5836 5836 5835 5834 5834 5832 5832 5831 5829 5828 5826 5824 5822 5820 5818 5815 5813 5811 5808 5806 5803 5801 5798 5796 5793 5790 5788 5785 5782 5779 5776 5773 5769 5766 5762 5759 5755 5751 5747 5744
5831 5831 5830 5829 5829 5829 5828 5827 5826 5825 5824 5822 5821 5819 5817 5815 5813 5811 5809 5806 5804 5802 5799 5797 5794 5792 5789 5786 5783 5781 5778 5775 5771 5768 5765 5762 5758 5754 5751 5747 5743 5739 5735
5823 5823 5823 5822 5822 5821 5820 5819 5819 5818 5817 5815 5814 5812 5810 5809 5806 5804 5802 5800 5797 5795 5792 5789 5787 5784 5782 5779 5776 5773 5770 5767 5764 5760 5757 5754 5750 5746 5743 5739 5735 5731 5728
5815 5815 5815 5814 5814 5813 5812 5812 5811 5810 5809 5807 5806 5804 5803 5801 5799 5797 5795 5792 5790 5787 5785 5782 5779 5777 5774 5771 5768 5765 5762 5759 5756 5752 5749 5745 5742 5738 5735 5731 5727 5723 5719
5807 5806 5806 5806 5806 5805 5804 5804 5803 5802 5801 5799 5798 5796 5795 5793 5791 5789 5787 5785 5782 5779 5777 5774 5772 5769 5766 5763 5760 5757 5754 5751 5748 5744 5741 5737 5733 5730 5726 5723 5719 5715 5712
5798 5798 5798 5798 5797 5797 5796 5795 5794 5793 5792 5791 5789 5788 5786 5784 5782 5780 5778 5776 5774 5771 5768 5766 5763 5760 5758 5755 5752 5749 5746 5742 5739 5735 5732 5728 5725 5722 5718 5714 5711 5707 5703
5788 5788 5789 5788 5788 5787 5787 5786 5785 5784 5783 5782 5780 5778 5776 5774 5773 5771 5769 5767 5764 5762 5760 5757 5754 5752 5749 5746 5743 5740 5737 5733 5730 5727 5723 5720 5717 5713 5710 5706 5702 5698 5695
5779 5779 5779 5779 5778 5778 5777 5776 5775 5774 5773 5772 5770 5768 5767 5765 5763 5761 5759 5757 5755 5753 5751 5748 5745 5743 5740 5737 5734 5731 5728 5724 5721 5718 5714 5711 5708 5704 5701 5697 5694 5690 5686
5769 5769 5768 5768 5768 5767 5766 5765 5765 5764 5763 5761 5760 5759 5757 5755 5754 5752 5750 5748 5746 5743 5741 5739 5736 5734 5731 5728 5725 5721 5718 5715 5712 5708 5705 5702 5698 5695 5692 5688 5685 5681 5677
5758 5758 5757 5757 5756 5756 5755 5755 5754 5753 5752 5751 5750 5748 5747 5745 5743 5742 5740 5738 5736 5734 5731 5729 5727 5724 5721 5718 5715 5712 5709 5706 5702 5699 5695 5692 5689 5686 5682 5679 5675 5672 5668
5747 5747 5747 5746 5746 5745 5744 5743 5743 5742 5741 5740 5739 5738 5736 5735 5733 5731 5730 5728 5726 5724 5721 5719 5716 5714 5711 5708 5705 5702 5699 5696 5692 5689 5686 5683 5679 5676 5673 5669 5666 5663 5659